Flag Weather past 2 weeks in Saint George's, Grenada

Now
86 °F

Passing clouds.


Feels Like: 99 °F
Forecast: 76 / 83 °F
Wind: 17 mph from Southeast

Location: Point Salines Airport

Current Time: Oct 31, 2014 at 3:25:14 PM

Latest Report: Oct 31, 2014 at 2:00 PM


Visibility: N/A

Pressure: 29.83 "Hg

Humidity: 79%

Dew point: 79 °F

Location of Saint George'sLocation

Historic Weather in Saint George's — Graph

°F

Saint George's temperature yesterday

Maximum temperature yesterday: 88 °F (at 1:00 PM)
Minimum temperature yesterday: 81 °F (at 12:00 AM)
Average temperature yesterday: 83 °F

Past Weeks' High & Low Weather Summary

 TemperatureHumidityPressure
High91 °F (Oct 21, 12:00 PM)100% (Oct 19, 2:00 AM)29.98 "Hg (Oct 19, 2:00 AM)
Low75 °F (Oct 23, 4:00 AM)63% (Oct 21, 12:00 PM)29.77 "Hg (Oct 26, 4:00 AM)
Average82 °F84%29.87 "Hg
* Reported Oct 16 2:00 PM — Oct 31 2:00 PM, Saint George's, Weather by CustomWeather, © 2014

Note: Actual official high and low records may vary slightly from our data, if they occured in-between our weather recording intervals... More about our weather records

Advertising

Saint George's weather history for previous 24 hours

 ConditionsComfort  
Time TempWeatherWind HumidityBarometerVisibility
2:00 PM
Oct 31
86 °FPassing clouds.17 mph79%29.83 "HgN/A
1:00 PM88 °FPassing clouds.18 mph79%29.86 "HgN/A
12:00 PM88 °FPassing clouds.22 mph79%29.86 "HgN/A
11:00 AM86 °FPassing clouds.20 mph84%29.89 "HgN/A
10:00 AM86 °FPassing clouds.21 mph79%29.89 "HgN/A
9:00 AM86 °FPassing clouds.21 mph84%29.89 "HgN/A
8:00 AM84 °FPassing clouds.18 mph84%29.86 "HgN/A
7:00 AM82 °FPassing clouds.12 mph84%29.83 "HgN/A
6:00 AM81 °FPassing clouds.12 mph89%29.83 "HgN/A
5:00 AM82 °FPassing clouds.12 mph84%29.80 "HgN/A
4:00 AM82 °FPassing clouds.10 mph84%29.77 "HgN/A
2:00 AM82 °FPassing clouds.12 mph84%29.80 "HgN/A
1:00 AM82 °FPassing clouds.13 mph84%29.83 "HgN/A
12:00 AM82 °FPassing clouds.17 mph84%29.83 "HgN/A
11:00 PM
Oct 30
82 °FPassing clouds.13 mph79%29.83 "HgN/A
10:00 PM82 °FPassing clouds.14 mph79%29.83 "HgN/A
9:00 PM82 °FPassing clouds.12 mph84%29.83 "HgN/A
8:00 PM82 °FPassing clouds.12 mph84%29.80 "HgN/A
7:00 PM82 °FPassing clouds.12 mph84%29.80 "HgN/A
6:00 PM82 °FPassing clouds.12 mph84%29.80 "HgN/A
5:00 PM84 °FPassing clouds.16 mph79%29.77 "HgN/A
4:00 PM86 °FPassing clouds.15 mph79%29.77 "HgN/A
3:00 PM86 °FPassing clouds.14 mph75%29.77 "HgN/A
Weather by CustomWeather, © 2014

See weather overviewHow to use our weather pages